owner,sensor,date,latitude,longitude,air_pressure(mBar),qcFlag 
WAVCIS,ioos:station:WAVCIS:CSI16:1,2010-03-01T00:00:00Z,29.4012,-89.0355,1010.37,11111222 
WAVCIS,ioos:station:WAVCIS:CSI16:1,2010-03-01T01:00:00Z,29.4012,-89.0355,1009.77,11111222 
WAVCIS,ioos:station:WAVCIS:CSI16:1,2010-03-01T02:00:00Z,29.4012,-89.0355,1009.4,11111222 
WAVCIS,ioos:station:WAVCIS:CSI16:1,2010-03-01T03:00:00Z,29.4012,-89.0355,1009.28,11111222 
WAVCIS,ioos:station:WAVCIS:CSI16:1,2010-03-01T04:00:00Z,29.4012,-89.0355,1009.28,11111222 
WAVCIS,ioos:station:WAVCIS:CSI16:1,2010-03-01T05:00:00Z,29.4012,-89.0355,1008.97,11111222 
WAVCIS,ioos:station:WAVCIS:CSI16:1,2010-03-01T06:00:00Z,29.4012,-89.0355,1008.21,11111222 
WAVCIS,ioos:station:WAVCIS:CSI16:1,2010-03-01T07:00:00Z,29.4012,-89.0355,1007.97,11111222 
WAVCIS,ioos:station:WAVCIS:CSI16:1,2010-03-01T08:00:00Z,29.4012,-89.0355,1007.73,11111222 
WAVCIS,ioos:station:WAVCIS:CSI16:1,2010-03-01T09:00:00Z,29.4012,-89.0355,1007.62,11111222 
WAVCIS,ioos:station:WAVCIS:CSI16:1,2010-03-01T10:00:00Z,29.4012,-89.0355,1008.54,11111222 
WAVCIS,ioos:station:WAVCIS:CSI16:1,2010-03-01T11:00:00Z,29.4012,-89.0355,1007.55,11111222 
WAVCIS,ioos:station:WAVCIS:CSI16:1,2010-03-01T12:00:00Z,29.4012,-89.0355,1007.52,11111222 
WAVCIS,ioos:station:WAVCIS:CSI16:1,2010-03-01T13:00:00Z,29.4012,-89.0355,1008.73,11111222 
WAVCIS,ioos:station:WAVCIS:CSI16:1,2010-03-01T14:00:00Z,29.4012,-89.0355,1009.32,11111222 
WAVCIS,ioos:station:WAVCIS:CSI16:1,2010-03-01T15:00:00Z,29.4012,-89.0355,1008.9,11111222 
WAVCIS,ioos:station:WAVCIS:CSI16:1,2010-03-01T16:00:00Z,29.4012,-89.0355,1008.58,11111222 
WAVCIS,ioos:station:WAVCIS:CSI16:1,2010-03-01T17:00:00Z,29.4012,-89.0355,1007.33,11111222 
WAVCIS,ioos:station:WAVCIS:CSI16:1,2010-03-01T18:00:00Z,29.4012,-89.0355,1005.821,11111222 
WAVCIS,ioos:station:WAVCIS:CSI16:1,2010-03-01T19:00:00Z,29.4012,-89.0355,1003.825,11111222 
WAVCIS,ioos:station:WAVCIS:CSI16:1,2010-03-01T20:00:00Z,29.4012,-89.0355,1002.3,11111222 
WAVCIS,ioos:station:WAVCIS:CSI16:1,2010-03-01T21:00:00Z,29.4012,-89.0355,1001.361,11111222 
WAVCIS,ioos:station:WAVCIS:CSI16:1,2010-03-01T22:00:00Z,29.4012,-89.0355,1000.184,11111222 
WAVCIS,ioos:station:WAVCIS:CSI16:1,2010-03-01T23:00:00Z,29.4012,-89.0355,999.157,11111222 
WAVCIS,ioos:station:WAVCIS:CSI16:1,2010-03-02T00:00:00Z,29.4012,-89.0355,998.872,11111222 
WAVCIS,ioos:station:WAVCIS:CSI16:1,2010-03-02T01:00:00Z,29.4012,-89.0355,998.178,11111222 
WAVCIS,ioos:station:WAVCIS:CSI16:1,2010-03-02T02:00:00Z,29.4012,-89.0355,999.629,11111222 
WAVCIS,ioos:station:WAVCIS:CSI16:1,2010-03-02T03:00:00Z,29.4012,-89.0355,997.447,11111222 
WAVCIS,ioos:station:WAVCIS:CSI16:1,2010-03-02T04:00:00Z,29.4012,-89.0355,997.039,11111222 
WAVCIS,ioos:station:WAVCIS:CSI16:1,2010-03-02T05:00:00Z,29.4012,-89.0355,997.836,11111222 
WAVCIS,ioos:station:WAVCIS:CSI16:1,2010-03-02T06:00:00Z,29.4012,-89.0355,997.485,11111222 
WAVCIS,ioos:station:WAVCIS:CSI16:1,2010-03-02T07:00:00Z,29.4012,-89.0355,997.663,11111222 
WAVCIS,ioos:station:WAVCIS:CSI16:1,2010-03-02T08:00:00Z,29.4012,-89.0355,997.602,11111222 
WAVCIS,ioos:station:WAVCIS:CSI16:1,2010-03-02T09:00:00Z,29.4012,-89.0355,997.921,11111222 
WAVCIS,ioos:station:WAVCIS:CSI16:1,2010-03-02T10:00:00Z,29.4012,-89.0355,998.242,11111222 
WAVCIS,ioos:station:WAVCIS:CSI16:1,2010-03-02T11:00:00Z,29.4012,-89.0355,998.143,11111222 
WAVCIS,ioos:station:WAVCIS:CSI16:1,2010-03-02T12:00:00Z,29.4012,-89.0355,998.875,11111222 
WAVCIS,ioos:station:WAVCIS:CSI16:1,2010-03-02T13:00:00Z,29.4012,-89.0355,1000.06,11111222 
WAVCIS,ioos:station:WAVCIS:CSI16:1,2010-03-02T14:00:00Z,29.4012,-89.0355,1001.043,11111222 
WAVCIS,ioos:station:WAVCIS:CSI16:1,2010-03-02T15:00:00Z,29.4012,-89.0355,1001.84,11111222 
WAVCIS,ioos:station:WAVCIS:CSI16:1,2010-03-02T16:00:00Z,29.4012,-89.0355,1002.686,11111222 
WAVCIS,ioos:station:WAVCIS:CSI16:1,2010-03-02T17:00:00Z,29.4012,-89.0355,1003.361,11111222 
WAVCIS,ioos:station:WAVCIS:CSI16:1,2010-03-02T18:00:00Z,29.4012,-89.0355,1003.554,11111222 
WAVCIS,ioos:station:WAVCIS:CSI16:1,2010-03-02T19:00:00Z,29.4012,-89.0355,1003.707,11111222 
WAVCIS,ioos:station:WAVCIS:CSI16:1,2010-03-02T20:00:00Z,29.4012,-89.0355,1003.892,11111222 
WAVCIS,ioos:station:WAVCIS:CSI16:1,2010-03-02T21:00:00Z,29.4012,-89.0355,1004.209,11111222 
WAVCIS,ioos:station:WAVCIS:CSI16:1,2010-03-02T22:00:00Z,29.4012,-89.0355,1004.68,11111222 
WAVCIS,ioos:station:WAVCIS:CSI16:1,2010-03-02T23:00:00Z,29.4012,-89.0355,1005.592,11111222 
WAVCIS,ioos:station:WAVCIS:CSI16:1,2010-03-03T00:00:00Z,29.4012,-89.0355,1006.716,11111222 
WAVCIS,ioos:station:WAVCIS:CSI16:1,2010-03-03T01:00:00Z,29.4012,-89.0355,1007.29,11111222 
WAVCIS,ioos:station:WAVCIS:CSI16:1,2010-03-03T02:00:00Z,29.4012,-89.0355,1008.0,11111222 
WAVCIS,ioos:station:WAVCIS:CSI16:1,2010-03-03T03:00:00Z,29.4012,-89.0355,1008.69,11111222 
WAVCIS,ioos:station:WAVCIS:CSI16:1,2010-03-03T04:00:00Z,29.4012,-89.0355,1009.52,11111222 
WAVCIS,ioos:station:WAVCIS:CSI16:1,2010-03-03T05:00:00Z,29.4012,-89.0355,1009.88,11111222 
WAVCIS,ioos:station:WAVCIS:CSI16:1,2010-03-03T06:00:00Z,29.4012,-89.0355,1010.03,11111222 
WAVCIS,ioos:station:WAVCIS:CSI16:1,2010-03-03T07:00:00Z,29.4012,-89.0355,1010.12,11111222 
WAVCIS,ioos:station:WAVCIS:CSI16:1,2010-03-03T08:00:00Z,29.4012,-89.0355,1010.17,11111222 
WAVCIS,ioos:station:WAVCIS:CSI16:1,2010-03-03T09:00:00Z,29.4012,-89.0355,1009.74,11111222 
WAVCIS,ioos:station:WAVCIS:CSI16:1,2010-03-03T10:00:00Z,29.4012,-89.0355,1009.81,11111222 
WAVCIS,ioos:station:WAVCIS:CSI16:1,2010-03-03T11:00:00Z,29.4012,-89.0355,1010.33,11111222 
WAVCIS,ioos:station:WAVCIS:CSI16:1,2010-03-03T12:00:00Z,29.4012,-89.0355,1010.59,11111222 
WAVCIS,ioos:station:WAVCIS:CSI16:1,2010-03-03T13:00:00Z,29.4012,-89.0355,1010.75,11111222 
WAVCIS,ioos:station:WAVCIS:CSI16:1,2010-03-03T14:00:00Z,29.4012,-89.0355,1011.41,11111222 
WAVCIS,ioos:station:WAVCIS:CSI16:1,2010-03-03T15:00:00Z,29.4012,-89.0355,1011.65,11111222 
WAVCIS,ioos:station:WAVCIS:CSI16:1,2010-03-03T16:00:00Z,29.4012,-89.0355,1011.91,11111222 
WAVCIS,ioos:station:WAVCIS:CSI16:1,2010-03-03T17:00:00Z,29.4012,-89.0355,1012.27,11111222 
WAVCIS,ioos:station:WAVCIS:CSI16:1,2010-03-03T18:00:00Z,29.4012,-89.0355,1011.94,11111222 
WAVCIS,ioos:station:WAVCIS:CSI16:1,2010-03-03T19:00:00Z,29.4012,-89.0355,1010.99,11111222 
WAVCIS,ioos:station:WAVCIS:CSI16:1,2010-03-03T20:00:00Z,29.4012,-89.0355,1010.66,11111222 
WAVCIS,ioos:station:WAVCIS:CSI16:1,2010-03-03T21:00:00Z,29.4012,-89.0355,1010.3,11111222 
WAVCIS,ioos:station:WAVCIS:CSI16:1,2010-03-03T22:00:00Z,29.4012,-89.0355,1010.27,11111222 
WAVCIS,ioos:station:WAVCIS:CSI16:1,2010-03-03T23:00:00Z,29.4012,-89.0355,1010.5,11111222 
WAVCIS,ioos:station:WAVCIS:CSI16:1,2010-03-04T00:00:00Z,29.4012,-89.0355,1010.68,11111222 
WAVCIS,ioos:station:WAVCIS:CSI16:1,2010-03-04T01:00:00Z,29.4012,-89.0355,1011.0,11111222 
WAVCIS,ioos:station:WAVCIS:CSI16:1,2010-03-04T02:00:00Z,29.4012,-89.0355,1011.39,11111222 
WAVCIS,ioos:station:WAVCIS:CSI16:1,2010-03-04T03:00:00Z,29.4012,-89.0355,1012.02,11111222 
WAVCIS,ioos:station:WAVCIS:CSI16:1,2010-03-04T04:00:00Z,29.4012,-89.0355,1012.52,11111222 
WAVCIS,ioos:station:WAVCIS:CSI16:1,2010-03-04T05:00:00Z,29.4012,-89.0355,1012.6,11111222 
WAVCIS,ioos:station:WAVCIS:CSI16:1,2010-03-04T06:00:00Z,29.4012,-89.0355,1012.75,11111222 
WAVCIS,ioos:station:WAVCIS:CSI16:1,2010-03-04T07:00:00Z,29.4012,-89.0355,1013.06,11111222 
WAVCIS,ioos:station:WAVCIS:CSI16:1,2010-03-04T08:00:00Z,29.4012,-89.0355,1013.02,11111222 
WAVCIS,ioos:station:WAVCIS:CSI16:1,2010-03-04T09:00:00Z,29.4012,-89.0355,1012.82,11111222 
WAVCIS,ioos:station:WAVCIS:CSI16:1,2010-03-04T10:00:00Z,29.4012,-89.0355,1013.31,11111222 
WAVCIS,ioos:station:WAVCIS:CSI16:1,2010-03-04T11:00:00Z,29.4012,-89.0355,1013.66,11111222 
WAVCIS,ioos:station:WAVCIS:CSI16:1,2010-03-04T12:00:00Z,29.4012,-89.0355,1014.27,11111222 
WAVCIS,ioos:station:WAVCIS:CSI16:1,2010-03-04T13:00:00Z,29.4012,-89.0355,1014.75,11111222 
WAVCIS,ioos:station:WAVCIS:CSI16:1,2010-03-04T14:00:00Z,29.4012,-89.0355,1015.82,11111222 
WAVCIS,ioos:station:WAVCIS:CSI16:1,2010-03-04T15:00:00Z,29.4012,-89.0355,1016.9,11111222 
WAVCIS,ioos:station:WAVCIS:CSI16:1,2010-03-04T16:00:00Z,29.4012,-89.0355,1017.49,11111222 
WAVCIS,ioos:station:WAVCIS:CSI16:1,2010-03-04T17:00:00Z,29.4012,-89.0355,1017.72,11111222 
WAVCIS,ioos:station:WAVCIS:CSI16:1,2010-03-04T18:00:00Z,29.4012,-89.0355,1016.97,11111222 
WAVCIS,ioos:station:WAVCIS:CSI16:1,2010-03-04T19:00:00Z,29.4012,-89.0355,1016.05,11111222 
WAVCIS,ioos:station:WAVCIS:CSI16:1,2010-03-04T20:00:00Z,29.4012,-89.0355,1015.32,11111222 
WAVCIS,ioos:station:WAVCIS:CSI16:1,2010-03-04T21:00:00Z,29.4012,-89.0355,1014.91,11111222 
WAVCIS,ioos:station:WAVCIS:CSI16:1,2010-03-04T22:00:00Z,29.4012,-89.0355,1014.47,11111222 
WAVCIS,ioos:station:WAVCIS:CSI16:1,2010-03-04T23:00:00Z,29.4012,-89.0355,1014.46,11111222 
WAVCIS,ioos:station:WAVCIS:CSI16:1,2010-03-05T00:00:00Z,29.4012,-89.0355,1014.34,11111222 
WAVCIS,ioos:station:WAVCIS:CSI16:1,2010-03-05T01:00:00Z,29.4012,-89.0355,1014.37,11111222 
WAVCIS,ioos:station:WAVCIS:CSI16:1,2010-03-05T02:00:00Z,29.4012,-89.0355,1014.84,11111222 
WAVCIS,ioos:station:WAVCIS:CSI16:1,2010-03-05T03:00:00Z,29.4012,-89.0355,1015.0,11111222 
WAVCIS,ioos:station:WAVCIS:CSI16:1,2010-03-05T04:00:00Z,29.4012,-89.0355,1015.19,11111222 
WAVCIS,ioos:station:WAVCIS:CSI16:1,2010-03-05T05:00:00Z,29.4012,-89.0355,1015.0,11111222 
WAVCIS,ioos:station:WAVCIS:CSI16:1,2010-03-05T06:00:00Z,29.4012,-89.0355,1015.1,11111222 
WAVCIS,ioos:station:WAVCIS:CSI16:1,2010-03-05T07:00:00Z,29.4012,-89.0355,1014.62,11111222 
WAVCIS,ioos:station:WAVCIS:CSI16:1,2010-03-05T08:00:00Z,29.4012,-89.0355,1014.31,11111222 
WAVCIS,ioos:station:WAVCIS:CSI16:1,2010-03-05T09:00:00Z,29.4012,-89.0355,1014.55,11111222 
WAVCIS,ioos:station:WAVCIS:CSI16:1,2010-03-05T10:00:00Z,29.4012,-89.0355,1014.27,11111222 
WAVCIS,ioos:station:WAVCIS:CSI16:1,2010-03-05T11:00:00Z,29.4012,-89.0355,1015.7,11111222 
WAVCIS,ioos:station:WAVCIS:CSI16:1,2010-03-05T12:00:00Z,29.4012,-89.0355,1015.4,11111222 
WAVCIS,ioos:station:WAVCIS:CSI16:1,2010-03-05T13:00:00Z,29.4012,-89.0355,1016.35,11111222 
WAVCIS,ioos:station:WAVCIS:CSI16:1,2010-03-05T14:00:00Z,29.4012,-89.0355,1016.79,11111222 
WAVCIS,ioos:station:WAVCIS:CSI16:1,2010-03-05T15:00:00Z,29.4012,-89.0355,1018.51,11111222 
WAVCIS,ioos:station:WAVCIS:CSI16:1,2010-03-05T16:00:00Z,29.4012,-89.0355,1019.08,11111222 
WAVCIS,ioos:station:WAVCIS:CSI16:1,2010-03-05T17:00:00Z,29.4012,-89.0355,1019.85,11111222 
WAVCIS,ioos:station:WAVCIS:CSI16:1,2010-03-05T18:00:00Z,29.4012,-89.0355,1018.97,11111222 
WAVCIS,ioos:station:WAVCIS:CSI16:1,2010-03-05T19:00:00Z,29.4012,-89.0355,1017.55,11111222 
WAVCIS,ioos:station:WAVCIS:CSI16:1,2010-03-05T20:00:00Z,29.4012,-89.0355,1016.9,11111222 
WAVCIS,ioos:station:WAVCIS:CSI16:1,2010-03-05T21:00:00Z,29.4012,-89.0355,1016.64,11111222 
WAVCIS,ioos:station:WAVCIS:CSI16:1,2010-03-05T22:00:00Z,29.4012,-89.0355,1016.68,11111222 
WAVCIS,ioos:station:WAVCIS:CSI16:1,2010-03-05T23:00:00Z,29.4012,-89.0355,1016.64,11111222 
WAVCIS,ioos:station:WAVCIS:CSI16:1,2010-03-06T00:00:00Z,29.4012,-89.0355,1016.28,11111222 
WAVCIS,ioos:station:WAVCIS:CSI16:1,2010-03-06T01:00:00Z,29.4012,-89.0355,1016.48,11111222 
WAVCIS,ioos:station:WAVCIS:CSI16:1,2010-03-06T02:00:00Z,29.4012,-89.0355,1016.58,11111222 
WAVCIS,ioos:station:WAVCIS:CSI16:1,2010-03-06T03:00:00Z,29.4012,-89.0355,1016.76,11111222 
WAVCIS,ioos:station:WAVCIS:CSI16:1,2010-03-06T04:00:00Z,29.4012,-89.0355,1017.16,11111222 
WAVCIS,ioos:station:WAVCIS:CSI16:1,2010-03-06T05:00:00Z,29.4012,-89.0355,1016.88,11111222 
WAVCIS,ioos:station:WAVCIS:CSI16:1,2010-03-06T06:00:00Z,29.4012,-89.0355,1016.76,11111222 
WAVCIS,ioos:station:WAVCIS:CSI16:1,2010-03-06T07:00:00Z,29.4012,-89.0355,1016.81,11111222 
WAVCIS,ioos:station:WAVCIS:CSI16:1,2010-03-06T08:00:00Z,29.4012,-89.0355,1016.6,11111222 
WAVCIS,ioos:station:WAVCIS:CSI16:1,2010-03-06T09:00:00Z,29.4012,-89.0355,1016.68,11111222 
WAVCIS,ioos:station:WAVCIS:CSI16:1,2010-03-06T10:00:00Z,29.4012,-89.0355,1016.82,11111222 
WAVCIS,ioos:station:WAVCIS:CSI16:1,2010-03-06T11:00:00Z,29.4012,-89.0355,1016.79,11111222 
WAVCIS,ioos:station:WAVCIS:CSI16:1,2010-03-06T12:00:00Z,29.4012,-89.0355,1017.66,11111222 
WAVCIS,ioos:station:WAVCIS:CSI16:1,2010-03-06T13:00:00Z,29.4012,-89.0355,1017.92,11111222 
WAVCIS,ioos:station:WAVCIS:CSI16:1,2010-03-06T14:00:00Z,29.4012,-89.0355,1018.99,11111222 
WAVCIS,ioos:station:WAVCIS:CSI16:1,2010-03-06T15:00:00Z,29.4012,-89.0355,1020.12,11111222 
WAVCIS,ioos:station:WAVCIS:CSI16:1,2010-03-06T16:00:00Z,29.4012,-89.0355,1020.89,11111222 
WAVCIS,ioos:station:WAVCIS:CSI16:1,2010-03-06T17:00:00Z,29.4012,-89.0355,1021.02,11111222 
WAVCIS,ioos:station:WAVCIS:CSI16:1,2010-03-06T18:00:00Z,29.4012,-89.0355,1020.46,11111222 
WAVCIS,ioos:station:WAVCIS:CSI16:1,2010-03-06T19:00:00Z,29.4012,-89.0355,1019.47,11111222 
WAVCIS,ioos:station:WAVCIS:CSI16:1,2010-03-06T20:00:00Z,29.4012,-89.0355,1018.72,11111222 
WAVCIS,ioos:station:WAVCIS:CSI16:1,2010-03-06T21:00:00Z,29.4012,-89.0355,1018.37,11111222 
WAVCIS,ioos:station:WAVCIS:CSI16:1,2010-03-06T22:00:00Z,29.4012,-89.0355,1017.82,11111222 
WAVCIS,ioos:station:WAVCIS:CSI16:1,2010-03-06T23:00:00Z,29.4012,-89.0355,1017.96,11111222 
WAVCIS,ioos:station:WAVCIS:CSI16:1,2010-03-07T00:00:00Z,29.4012,-89.0355,1017.55,11111222 
WAVCIS,ioos:station:WAVCIS:CSI16:1,2010-03-07T01:00:00Z,29.4012,-89.0355,1017.73,11111222 
WAVCIS,ioos:station:WAVCIS:CSI16:1,2010-03-07T02:00:00Z,29.4012,-89.0355,1017.6,11111222 
WAVCIS,ioos:station:WAVCIS:CSI16:1,2010-03-07T03:00:00Z,29.4012,-89.0355,1018.0,11111222 
WAVCIS,ioos:station:WAVCIS:CSI16:1,2010-03-07T04:00:00Z,29.4012,-89.0355,1018.26,11111222 
WAVCIS,ioos:station:WAVCIS:CSI16:1,2010-03-07T05:00:00Z,29.4012,-89.0355,1017.81,11111222 
WAVCIS,ioos:station:WAVCIS:CSI16:1,2010-03-07T06:00:00Z,29.4012,-89.0355,1017.72,11111222 
WAVCIS,ioos:station:WAVCIS:CSI16:1,2010-03-07T07:00:00Z,29.4012,-89.0355,1018.03,11111222 
WAVCIS,ioos:station:WAVCIS:CSI16:1,2010-03-07T08:00:00Z,29.4012,-89.0355,1017.93,11111222 
WAVCIS,ioos:station:WAVCIS:CSI16:1,2010-03-07T09:00:00Z,29.4012,-89.0355,1017.41,11111222 
WAVCIS,ioos:station:WAVCIS:CSI16:1,2010-03-07T10:00:00Z,29.4012,-89.0355,1017.51,11111222 
WAVCIS,ioos:station:WAVCIS:CSI16:1,2010-03-07T11:00:00Z,29.4012,-89.0355,1017.5,11111222 
WAVCIS,ioos:station:WAVCIS:CSI16:1,2010-03-07T12:00:00Z,29.4012,-89.0355,1017.42,11111222 
WAVCIS,ioos:station:WAVCIS:CSI16:1,2010-03-07T13:00:00Z,29.4012,-89.0355,1018.4,11111222 
WAVCIS,ioos:station:WAVCIS:CSI16:1,2010-03-07T14:00:00Z,29.4012,-89.0355,1018.78,11111222 
WAVCIS,ioos:station:WAVCIS:CSI16:1,2010-03-07T15:00:00Z,29.4012,-89.0355,1020.13,11111222 
WAVCIS,ioos:station:WAVCIS:CSI16:1,2010-03-07T16:00:00Z,29.4012,-89.0355,1020.35,11111222 
WAVCIS,ioos:station:WAVCIS:CSI16:1,2010-03-07T17:00:00Z,29.4012,-89.0355,1020.78,11111222 
WAVCIS,ioos:station:WAVCIS:CSI16:1,2010-03-07T18:00:00Z,29.4012,-89.0355,1019.94,11111222 
WAVCIS,ioos:station:WAVCIS:CSI16:1,2010-03-07T19:00:00Z,29.4012,-89.0355,1018.9,11111222 
WAVCIS,ioos:station:WAVCIS:CSI16:1,2010-03-07T20:00:00Z,29.4012,-89.0355,1017.73,11111222 
WAVCIS,ioos:station:WAVCIS:CSI16:1,2010-03-07T21:00:00Z,29.4012,-89.0355,1017.16,11111222 
WAVCIS,ioos:station:WAVCIS:CSI16:1,2010-03-07T22:00:00Z,29.4012,-89.0355,1016.32,11111222 
WAVCIS,ioos:station:WAVCIS:CSI16:1,2010-03-07T23:00:00Z,29.4012,-89.0355,1016.66,11111222 
WAVCIS,ioos:station:WAVCIS:CSI16:1,2010-03-08T00:00:00Z,29.4012,-89.0355,1016.68,11111222 
WAVCIS,ioos:station:WAVCIS:CSI16:1,2010-03-08T01:00:00Z,29.4012,-89.0355,1016.12,11111222 
WAVCIS,ioos:station:WAVCIS:CSI16:1,2010-03-08T02:00:00Z,29.4012,-89.0355,1016.42,11111222 
WAVCIS,ioos:station:WAVCIS:CSI16:1,2010-03-08T03:00:00Z,29.4012,-89.0355,1016.67,11111222 
WAVCIS,ioos:station:WAVCIS:CSI16:1,2010-03-08T04:00:00Z,29.4012,-89.0355,1016.28,11111222 
WAVCIS,ioos:station:WAVCIS:CSI16:1,2010-03-08T05:00:00Z,29.4012,-89.0355,1016.23,11111222 
WAVCIS,ioos:station:WAVCIS:CSI16:1,2010-03-08T06:00:00Z,29.4012,-89.0355,1015.15,11111222 
WAVCIS,ioos:station:WAVCIS:CSI16:1,2010-03-08T07:00:00Z,29.4012,-89.0355,1014.75,11111222 
WAVCIS,ioos:station:WAVCIS:CSI16:1,2010-03-08T08:00:00Z,29.4012,-89.0355,1014.94,11111222 
WAVCIS,ioos:station:WAVCIS:CSI16:1,2010-03-08T09:00:00Z,29.4012,-89.0355,1014.57,11111222 
WAVCIS,ioos:station:WAVCIS:CSI16:1,2010-03-08T10:00:00Z,29.4012,-89.0355,1014.3,11111222 
WAVCIS,ioos:station:WAVCIS:CSI16:1,2010-03-08T11:00:00Z,29.4012,-89.0355,1014.42,11111222 
WAVCIS,ioos:station:WAVCIS:CSI16:1,2010-03-08T12:00:00Z,29.4012,-89.0355,1014.96,11111222 
WAVCIS,ioos:station:WAVCIS:CSI16:1,2010-03-08T13:00:00Z,29.4012,-89.0355,1015.16,11111222 
WAVCIS,ioos:station:WAVCIS:CSI16:1,2010-03-08T14:00:00Z,29.4012,-89.0355,1015.13,11111222 
WAVCIS,ioos:station:WAVCIS:CSI16:1,2010-03-08T15:00:00Z,29.4012,-89.0355,1015.15,11111222 
WAVCIS,ioos:station:WAVCIS:CSI16:1,2010-03-08T16:00:00Z,29.4012,-89.0355,1015.15,11111222 
WAVCIS,ioos:station:WAVCIS:CSI16:1,2010-03-08T17:00:00Z,29.4012,-89.0355,1014.82,11111222 
WAVCIS,ioos:station:WAVCIS:CSI16:1,2010-03-08T18:00:00Z,29.4012,-89.0355,1014.43,11111222 
WAVCIS,ioos:station:WAVCIS:CSI16:1,2010-03-08T19:00:00Z,29.4012,-89.0355,1013.94,11111222 
WAVCIS,ioos:station:WAVCIS:CSI16:1,2010-03-08T20:00:00Z,29.4012,-89.0355,1013.16,11111222 
WAVCIS,ioos:station:WAVCIS:CSI16:1,2010-03-08T21:00:00Z,29.4012,-89.0355,1013.42,11111222 
WAVCIS,ioos:station:WAVCIS:CSI16:1,2010-03-08T22:00:00Z,29.4012,-89.0355,1012.37,11111222 
WAVCIS,ioos:station:WAVCIS:CSI16:1,2010-03-08T23:00:00Z,29.4012,-89.0355,1012.44,11111222 
WAVCIS,ioos:station:WAVCIS:CSI16:1,2010-03-09T00:00:00Z,29.4012,-89.0355,1010.87,11111222 
WAVCIS,ioos:station:WAVCIS:CSI16:1,2010-03-09T01:00:00Z,29.4012,-89.0355,1011.49,11111222 
WAVCIS,ioos:station:WAVCIS:CSI16:1,2010-03-09T02:00:00Z,29.4012,-89.0355,1009.91,11111222 
WAVCIS,ioos:station:WAVCIS:CSI16:1,2010-03-09T03:00:00Z,29.4012,-89.0355,1009.74,11111222 
WAVCIS,ioos:station:WAVCIS:CSI16:1,2010-03-09T04:00:00Z,29.4012,-89.0355,1008.65,11111222 
WAVCIS,ioos:station:WAVCIS:CSI16:1,2010-03-09T05:00:00Z,29.4012,-89.0355,1008.4,11111222 
WAVCIS,ioos:station:WAVCIS:CSI16:1,2010-03-09T06:00:00Z,29.4012,-89.0355,1008.21,11111222 
WAVCIS,ioos:station:WAVCIS:CSI16:1,2010-03-09T07:00:00Z,29.4012,-89.0355,1006.958,11111222 
WAVCIS,ioos:station:WAVCIS:CSI16:1,2010-03-09T08:00:00Z,29.4012,-89.0355,1007.51,11111222 
WAVCIS,ioos:station:WAVCIS:CSI16:1,2010-03-09T09:00:00Z,29.4012,-89.0355,1006.643,11111222 
WAVCIS,ioos:station:WAVCIS:CSI16:1,2010-03-09T10:00:00Z,29.4012,-89.0355,1007.15,11111222 
WAVCIS,ioos:station:WAVCIS:CSI16:1,2010-03-09T11:00:00Z,29.4012,-89.0355,1008.15,11111222 
WAVCIS,ioos:station:WAVCIS:CSI16:1,2010-03-09T12:00:00Z,29.4012,-89.0355,1008.52,11111222 
WAVCIS,ioos:station:WAVCIS:CSI16:1,2010-03-09T13:00:00Z,29.4012,-89.0355,1008.77,11111222 
WAVCIS,ioos:station:WAVCIS:CSI16:1,2010-03-09T14:00:00Z,29.4012,-89.0355,1009.03,11111222 
WAVCIS,ioos:station:WAVCIS:CSI16:1,2010-03-09T15:00:00Z,29.4012,-89.0355,1009.2,11111222 
WAVCIS,ioos:station:WAVCIS:CSI16:1,2010-03-09T16:00:00Z,29.4012,-89.0355,1008.78,11111222 
WAVCIS,ioos:station:WAVCIS:CSI16:1,2010-03-09T17:00:00Z,29.4012,-89.0355,1008.52,11111222 
WAVCIS,ioos:station:WAVCIS:CSI16:1,2010-03-09T18:00:00Z,29.4012,-89.0355,1008.21,11111222 
WAVCIS,ioos:station:WAVCIS:CSI16:1,2010-03-09T19:00:00Z,29.4012,-89.0355,1007.59,11111222 
WAVCIS,ioos:station:WAVCIS:CSI16:1,2010-03-09T20:00:00Z,29.4012,-89.0355,1006.659,11111222 
WAVCIS,ioos:station:WAVCIS:CSI16:1,2010-03-09T21:00:00Z,29.4012,-89.0355,1006.227,11111222 
WAVCIS,ioos:station:WAVCIS:CSI16:1,2010-03-09T22:00:00Z,29.4012,-89.0355,1006.221,11111222 
WAVCIS,ioos:station:WAVCIS:CSI16:1,2010-03-09T23:00:00Z,29.4012,-89.0355,1005.811,11111222 
WAVCIS,ioos:station:WAVCIS:CSI16:1,2010-03-10T00:00:00Z,29.4012,-89.0355,1005.951,11111222 
WAVCIS,ioos:station:WAVCIS:CSI16:1,2010-03-10T01:00:00Z,29.4012,-89.0355,1006.043,11111222 
WAVCIS,ioos:station:WAVCIS:CSI16:1,2010-03-10T02:00:00Z,29.4012,-89.0355,1006.464,11111222 
WAVCIS,ioos:station:WAVCIS:CSI16:1,2010-03-10T03:00:00Z,29.4012,-89.0355,1006.499,11111222 
WAVCIS,ioos:station:WAVCIS:CSI16:1,2010-03-10T04:00:00Z,29.4012,-89.0355,1005.951,11111222 
WAVCIS,ioos:station:WAVCIS:CSI16:1,2010-03-10T05:00:00Z,29.4012,-89.0355,1005.538,11111222 
WAVCIS,ioos:station:WAVCIS:CSI16:1,2010-03-10T06:00:00Z,29.4012,-89.0355,1005.235,11111222 
WAVCIS,ioos:station:WAVCIS:CSI16:1,2010-03-10T07:00:00Z,29.4012,-89.0355,1004.424,11111222 
WAVCIS,ioos:station:WAVCIS:CSI16:1,2010-03-10T08:00:00Z,29.4012,-89.0355,1003.713,11111222 
WAVCIS,ioos:station:WAVCIS:CSI16:1,2010-03-10T09:00:00Z,29.4012,-89.0355,1002.916,11111222 
WAVCIS,ioos:station:WAVCIS:CSI16:1,2010-03-10T10:00:00Z,29.4012,-89.0355,1002.652,11111222 
WAVCIS,ioos:station:WAVCIS:CSI16:1,2010-03-10T11:00:00Z,29.4012,-89.0355,1002.812,11111222 
WAVCIS,ioos:station:WAVCIS:CSI16:1,2010-03-10T12:00:00Z,29.4012,-89.0355,1003.293,11111222 
WAVCIS,ioos:station:WAVCIS:CSI16:1,2010-03-10T13:00:00Z,29.4012,-89.0355,1003.536,11111222 
WAVCIS,ioos:station:WAVCIS:CSI16:1,2010-03-10T14:00:00Z,29.4012,-89.0355,1003.995,11111222 
WAVCIS,ioos:station:WAVCIS:CSI16:1,2010-03-10T15:00:00Z,29.4012,-89.0355,1004.335,11111222 
WAVCIS,ioos:station:WAVCIS:CSI16:1,2010-03-10T16:00:00Z,29.4012,-89.0355,1004.519,11111222 
WAVCIS,ioos:station:WAVCIS:CSI16:1,2010-03-10T17:00:00Z,29.4012,-89.0355,1004.287,11111222 
WAVCIS,ioos:station:WAVCIS:CSI16:1,2010-03-10T18:00:00Z,29.4012,-89.0355,1003.305,11111222 
WAVCIS,ioos:station:WAVCIS:CSI16:1,2010-03-10T19:00:00Z,29.4012,-89.0355,1001.829,11111222 
WAVCIS,ioos:station:WAVCIS:CSI16:1,2010-03-10T20:00:00Z,29.4012,-89.0355,1001.668,11111222 
WAVCIS,ioos:station:WAVCIS:CSI16:1,2010-03-10T21:00:00Z,29.4012,-89.0355,1001.327,11111222 
WAVCIS,ioos:station:WAVCIS:CSI16:1,2010-03-10T22:00:00Z,29.4012,-89.0355,1000.777,11111222 
WAVCIS,ioos:station:WAVCIS:CSI16:1,2010-03-10T23:00:00Z,29.4012,-89.0355,1000.577,11111222 
WAVCIS,ioos:station:WAVCIS:CSI16:1,2010-03-11T00:00:00Z,29.4012,-89.0355,1000.176,11111222 
WAVCIS,ioos:station:WAVCIS:CSI16:1,2010-03-11T01:00:00Z,29.4012,-89.0355,1000.667,11111222 
WAVCIS,ioos:station:WAVCIS:CSI16:1,2010-03-11T02:00:00Z,29.4012,-89.0355,1001.304,11111222 
WAVCIS,ioos:station:WAVCIS:CSI16:1,2010-03-11T03:00:00Z,29.4012,-89.0355,1000.173,11111222 
WAVCIS,ioos:station:WAVCIS:CSI16:1,2010-03-11T04:00:00Z,29.4012,-89.0355,999.981,11111222 
WAVCIS,ioos:station:WAVCIS:CSI16:1,2010-03-11T05:00:00Z,29.4012,-89.0355,999.376,11111222 
WAVCIS,ioos:station:WAVCIS:CSI16:1,2010-03-11T06:00:00Z,29.4012,-89.0355,999.152,11111222 
WAVCIS,ioos:station:WAVCIS:CSI16:1,2010-03-11T07:00:00Z,29.4012,-89.0355,998.262,11111222 
WAVCIS,ioos:station:WAVCIS:CSI16:1,2010-03-11T08:00:00Z,29.4012,-89.0355,997.773,11111222 
WAVCIS,ioos:station:WAVCIS:CSI16:1,2010-03-11T09:00:00Z,29.4012,-89.0355,997.529,11111222 
WAVCIS,ioos:station:WAVCIS:CSI16:1,2010-03-11T10:00:00Z,29.4012,-89.0355,997.624,11111222 
WAVCIS,ioos:station:WAVCIS:CSI16:1,2010-03-11T11:00:00Z,29.4012,-89.0355,998.443,11111222 
WAVCIS,ioos:station:WAVCIS:CSI16:1,2010-03-11T12:00:00Z,29.4012,-89.0355,999.272,11111222 
WAVCIS,ioos:station:WAVCIS:CSI16:1,2010-03-11T13:00:00Z,29.4012,-89.0355,999.635,11111222 
WAVCIS,ioos:station:WAVCIS:CSI16:1,2010-03-11T14:00:00Z,29.4012,-89.0355,999.687,11111222 
WAVCIS,ioos:station:WAVCIS:CSI16:1,2010-03-11T15:00:00Z,29.4012,-89.0355,1000.009,11111222 
WAVCIS,ioos:station:WAVCIS:CSI16:1,2010-03-11T16:00:00Z,29.4012,-89.0355,1000.666,11111222 
WAVCIS,ioos:station:WAVCIS:CSI16:1,2010-03-11T17:00:00Z,29.4012,-89.0355,1001.008,11111222 
WAVCIS,ioos:station:WAVCIS:CSI16:1,2010-03-11T18:00:00Z,29.4012,-89.0355,1000.56,11111222 
WAVCIS,ioos:station:WAVCIS:CSI16:1,2010-03-11T19:00:00Z,29.4012,-89.0355,999.918,11111222 
WAVCIS,ioos:station:WAVCIS:CSI16:1,2010-03-11T20:00:00Z,29.4012,-89.0355,998.92,11111222 
WAVCIS,ioos:station:WAVCIS:CSI16:1,2010-03-11T21:00:00Z,29.4012,-89.0355,999.415,11111222 